START_TIME,STEP,MOV.,M29,t_acc.,H22,t_acc.,H26,t_acc.,H30,t_acc.
1979-07-29 21:00:30.980 ,0,0,0.,24.0,0.,24.0,0.,24.0,0.,24.0
1979-07-29 21:00:54.980 ,0,1,0.,24.0,0.,24.0,0.,24.0,0.,24.0
1979-07-29 21:01:18.980 ,0,0,1.,24.0,0.,24.0,0.,24.0,0.,24.0
1979-07-29 21:01:42.980 ,1,1,0.,24.0,0.,24.0,0.,24.0,0.,24.0
1979-07-29 21:02:06.980 ,1,0,0.,24.0,0.,24.0,0.,24.0,0.,24.0
1979-07-29 21:02:30.980 ,2,1,0.,24.0,0.,24.0,0.,24.0,0.,24.0
1979-07-29 21:02:54.980 ,2,0,0.,24.0,0.,24.0,0.,24.0,0.,24.0
1979-07-29 21:03:18.980 ,3,1,1.,24.0,0.,24.0,0.,24.0,0.,24.0
1979-07-29 21:03:42.980 ,3,0,0.,24.0,0.,24.0,0.,24.0,0.,24.0
1979-07-29 21:04:06.980 ,4,1,0.,24.0,0.,24.0,0.,24.0,0.,24.0
1979-07-29 21:04:30.980 ,4,0,0.,24.0,0.,24.0,0.,24.0,0.,24.0
1979-07-29 21:04:54.980 ,5,1,0.,24.0,0.,24.0,0.,24.0,0.,24.0
1979-07-29 21:05:18.980 ,5,0,0.,24.0,0.,24.0,0.,24.0,0.,24.0
1979-07-29 21:05:42.980 ,6,1,0.,24.0,0.,24.0,0.,24.0,0.,24.0
1979-07-29 21:06:06.980 ,6,0,0.,24.0,0.,24.0,0.,24.0,0.,24.0
1979-07-29 21:06:30.980 ,7,0,0.,24.0,0.,24.0,0.,24.0,0.,24.0
1979-07-29 21:06:54.980 ,7,0,0.,24.0,0.,24.0,0.,24.0,0.,24.0
1979-07-29 21:07:18.980 ,5,1,0.,24.0,0.,24.0,0.,24.0,0.,24.0
1979-07-29 21:07:42.980 ,1,1,0.,24.0,0.,24.0,0.,24.0,0.,24.0
1979-07-29 21:08:06.980 ,2,1,0.,24.0,0.,24.0,0.,24.0,0.,24.0
1979-07-29 21:08:30.980 ,6,1,0.,24.0,0.,24.0,0.,24.0,0.,24.0
1979-07-29 21:08:54.980 ,5,1,0.,24.0,0.,24.0,0.,24.0,0.,24.0
1979-07-29 21:09:18.980 ,1,1,0.,24.0,0.,24.0,0.,24.0,0.,24.0
1979-07-29 21:09:42.980 ,2,1,0.,24.0,0.,24.0,0.,24.0,0.,24.0
1979-07-29 21:10:06.980 ,6,1,0.,24.0,0.,24.0,0.,24.0,0.,24.0
1979-07-29 21:10:30.980 ,5,1,0.,24.0,0.,24.0,0.,24.0,0.,24.0
1979-07-29 21:10:54.980 ,1,1,0.,24.0,0.,24.0,0.,24.0,0.,24.0
1979-07-29 21:11:18.980 ,2,1,0.,24.0,0.,24.0,0.,24.0,0.,24.0
1979-07-29 21:11:42.980 ,6,1,0.,24.0,0.,24.0,0.,24.0,0.,24.0
1979-07-29 21:12:06.980 ,5,1,0.,24.0,0.,24.0,0.,24.0,0.,24.0
1979-07-29 21:12:30.980 ,1,1,0.,24.0,0.,24.0,0.,24.0,0.,24.0
1979-07-29 21:12:54.980 ,2,1,0.,24.0,0.,24.0,0.,24.0,0.,24.0
1979-07-29 21:13:18.980 ,6,1,0.,24.0,0.,24.0,0.,24.0,0.,24.0
1979-07-29 21:13:42.980 ,5,1,0.,24.0,0.,24.0,0.,24.0,0.,24.0
1979-07-29 21:14:06.980 ,1,1,0.,24.0,0.,24.0,0.,24.0,0.,24.0
1979-07-29 21:14:30.980 ,2,1,0.,24.0,0.,24.0,0.,24.0,0.,24.0
1979-07-29 21:14:54.980 ,6,1,0.,24.0,0.,24.0,0.,24.0,0.,24.0
1979-07-29 21:15:18.980 ,5,1,0.,24.0,0.,24.0,0.,24.0,0.,24.0
1979-07-29 21:15:42.980 ,1,1,0.,24.0,0.,24.0,0.,24.0,0.,24.0
1979-07-29 21:16:06.980 ,2,1,0.,24.0,0.,24.0,0.,24.0,0.,24.0
1979-07-29 21:16:30.980 ,6,1,0.,24.0,0.,24.0,0.,24.0,0.,24.0
1979-07-29 21:16:54.980 ,5,1,0.,24.0,0.,24.0,0.,24.0,0.,24.0
1979-07-29 21:17:18.980 ,1,1,0.,24.0,0.,24.0,0.,24.0,0.,24.0
1979-07-29 21:17:42.980 ,0,0,0.,24.0,0.,24.0,0.,24.0,0.,24.0
1979-07-29 21:18:06.980 ,0,0,0.,24.0,0.,24.0,0.,24.0,0.,24.0
1979-07-29 21:18:30.980 ,5,1,0.,24.0,0.,24.0,0.,24.0,0.,24.0
1979-07-29 21:18:54.980 ,5,0,0.,24.0,0.,24.0,0.,24.0,0.,24.0
1979-07-29 21:19:18.980 ,4,1,1.,24.0,0.,24.0,0.,24.0,0.,24.0
1979-07-29 21:19:42.980 ,4,0,0.,24.0,0.,24.0,0.,24.0,0.,24.0
1979-07-29 21:20:06.980 ,3,1,0.,24.0,0.,24.0,0.,24.0,0.,24.0
1979-07-29 21:20:30.980 ,3,0,0.,24.0,0.,24.0,0.,24.0,0.,24.0
1979-07-29 21:20:54.980 ,2,1,0.,24.0,0.,24.0,0.,24.0,0.,24.0
1979-07-29 21:21:18.980 ,2,0,0.,24.0,0.,24.0,0.,24.0,0.,24.0
1979-07-29 21:21:42.980 ,1,1,0.,24.0,0.,24.0,0.,24.0,0.,24.0
1979-07-29 21:22:06.980 ,0,0,0.,24.0,0.,24.0,0.,24.0,0.,24.0
1979-07-29 21:22:54.980 ,0,0,0.,24.0,0.,24.0,0.,24.0,0.,24.0
1979-07-29 21:23:18.980 ,0,1,0.,24.0,0.,24.0,0.,24.0,0.,24.0
1979-07-29 21:23:42.980 ,0,0,0.,24.0,0.,24.0,0.,24.0,0.,24.0
1979-07-29 21:24:06.980 ,1,1,0.,24.0,0.,24.0,0.,24.0,0.,24.0
1979-07-29 21:24:30.980 ,1,0,0.,24.0,0.,24.0,0.,24.0,0.,24.0
1979-07-29 21:24:54.980 ,2,1,0.,24.0,0.,24.0,0.,24.0,0.,24.0
1979-07-29 21:25:18.980 ,2,0,0.,24.0,0.,24.0,0.,24.0,0.,24.0
1979-07-29 21:25:42.980 ,3,1,0.,24.0,0.,24.0,0.,24.0,0.,24.0
1979-07-29 21:26:06.980 ,3,0,0.,24.0,0.,24.0,0.,24.0,0.,24.0
1979-07-29 21:26:30.980 ,4,1,0.,24.0,0.,24.0,0.,24.0,0.,24.0
1979-07-29 21:26:54.980 ,4,0,0.,24.0,0.,24.0,0.,24.0,0.,24.0
1979-07-29 21:27:18.980 ,5,1,0.,24.0,0.,24.0,0.,24.0,0.,24.0
1979-07-29 21:27:42.980 ,5,0,0.,24.0,0.,24.0,0.,24.0,0.,24.0
1979-07-29 21:28:06.980 ,6,1,0.,24.0,0.,24.0,0.,24.0,0.,24.0
1979-07-29 21:28:30.980 ,6,0,0.,24.0,0.,24.0,0.,24.0,0.,24.0
1979-07-29 21:28:54.980 ,7,1,0.,24.0,0.,24.0,0.,24.0,0.,24.0
1979-07-29 21:29:18.980 ,7,0,0.,24.0,0.,24.0,0.,24.0,0.,24.0
1979-07-29 21:29:42.980 ,7,1,0.,24.0,0.,24.0,0.,24.0,0.,24.0
1979-07-29 21:30:06.980 ,7,0,0.,24.0,0.,24.0,0.,24.0,0.,24.0
1979-07-29 21:30:30.980 ,6,1,0.,24.0,0.,24.0,0.,24.0,0.,24.0
1979-07-29 21:30:54.980 ,6,0,0.,24.0,0.,24.0,0.,24.0,0.,24.0
1979-07-29 21:31:18.980 ,5,1,0.,24.0,0.,24.0,0.,24.0,0.,24.0
1979-07-29 21:31:42.980 ,5,0,0.,24.0,0.,24.0,0.,24.0,0.,24.0
1979-07-29 21:32:06.980 ,4,1,0.,24.0,0.,24.0,0.,24.0,0.,24.0
1979-07-29 21:32:30.980 ,4,0,0.,24.0,0.,24.0,0.,24.0,0.,24.0
1979-07-29 21:32:54.980 ,3,1,0.,24.0,0.,24.0,0.,24.0,0.,24.0
1979-07-29 21:33:18.980 ,3,0,0.,24.0,0.,24.0,0.,24.0,0.,24.0
1979-07-29 21:33:42.980 ,0,0,0.,24.0,0.,24.0,0.,24.0,0.,24.0
1979-07-29 21:34:06.980 ,0,0,0.,24.0,0.,24.0,0.,24.0,0.,24.0
1979-07-29 21:34:30.980 ,1,1,0.,24.0,0.,24.0,0.,24.0,0.,24.0
1979-07-29 21:34:54.980 ,1,0,0.,24.0,0.,24.0,0.,24.0,0.,24.0
1979-07-29 21:35:18.980 ,0,1,0.,24.0,0.,24.0,0.,24.0,0.,24.0
1979-07-29 21:35:42.980 ,0,0,0.,24.0,0.,24.0,0.,24.0,0.,24.0
1979-07-29 21:36:06.980 ,0,1,0.,24.0,0.,24.0,0.,24.0,0.,24.0
1979-07-29 21:36:30.980 ,0,0,0.,24.0,0.,24.0,0.,24.0,0.,24.0
1979-07-29 21:36:54.980 ,1,1,0.,24.0,0.,24.0,0.,24.0,0.,24.0
1979-07-29 21:37:18.980 ,1,0,0.,24.0,0.,24.0,0.,24.0,0.,24.0
1979-07-29 21:37:42.980 ,2,1,0.,24.0,0.,24.0,0.,24.0,0.,24.0
1979-07-29 21:38:06.980 ,2,0,0.,24.0,0.,24.0,0.,24.0,0.,24.0
1979-07-29 21:38:30.980 ,3,1,0.,24.0,0.,24.0,0.,24.0,0.,24.0
1979-07-29 21:38:54.980 ,3,0,0.,24.0,0.,24.0,0.,24.0,0.,24.0
1979-07-29 21:39:18.980 ,4,1,0.,24.0,0.,24.0,0.,24.0,0.,24.0
1979-07-29 21:39:42.980 ,4,0,0.,24.0,0.,24.0,0.,24.0,0.,24.0
1979-07-29 21:40:06.980 ,5,1,0.,24.0,0.,24.0,0.,24.0,0.,24.0
1979-07-29 21:40:30.980 ,5,0,0.,24.0,0.,24.0,0.,24.0,0.,24.0
1979-07-29 21:40:54.980 ,6,1,0.,24.0,0.,24.0,0.,24.0,0.,24.0
1979-07-29 21:41:18.980 ,6,0,0.,24.0,0.,24.0,0.,24.0,0.,24.0
1979-07-29 21:41:42.980 ,7,1,0.,24.0,0.,24.0,0.,24.0,0.,24.0
1979-07-29 21:42:06.980 ,7,0,0.,24.0,0.,24.0,0.,24.0,0.,24.0
1979-07-29 21:42:30.980 ,7,1,0.,24.0,0.,24.0,0.,24.0,0.,24.0
1979-07-29 21:42:54.980 ,7,0,0.,24.0,0.,24.0,0.,24.0,0.,24.0
1979-07-29 21:43:18.980 ,6,1,0.,24.0,0.,24.0,0.,24.0,0.,24.0
1979-07-29 21:43:42.980 ,6,0,0.,24.0,0.,24.0,0.,24.0,0.,24.0
1979-07-29 21:44:06.980 ,5,1,0.,24.0,0.,24.0,0.,24.0,0.,24.0
1979-07-29 21:44:30.980 ,5,0,0.,24.0,0.,24.0,0.,24.0,0.,24.0
1979-07-29 21:44:54.980 ,4,1,0.,24.0,0.,24.0,0.,24.0,0.,24.0
1979-07-29 21:45:18.980 ,4,0,0.,24.0,0.,24.0,0.,24.0,0.,24.0
1979-07-29 21:45:42.980 ,3,1,0.,24.0,0.,24.0,0.,24.0,0.,24.0
1979-07-29 21:46:06.980 ,3,0,0.,24.0,0.,24.0,0.,24.0,0.,24.0
1979-07-29 21:46:30.980 ,2,1,0.,24.0,0.,24.0,0.,24.0,0.,24.0
1979-07-29 21:46:54.980 ,2,0,0.,24.0,0.,24.0,0.,24.0,0.,24.0
1979-07-29 21:47:18.980 ,1,1,0.,24.0,0.,24.0,0.,24.0,0.,24.0
1979-07-29 21:47:42.980 ,1,0,0.,24.0,0.,24.0,0.,24.0,0.,24.0
1979-07-29 21:48:06.980 ,0,1,0.,24.0,0.,24.0,0.,24.0,0.,24.0
1979-07-29 21:48:30.980 ,0,0,0.,24.0,0.,24.0,0.,24.0,0.,24.0
1979-07-29 21:48:54.980 ,0,1,0.,24.0,0.,24.0,0.,24.0,0.,24.0
1979-07-29 21:49:18.980 ,0,0,0.,24.0,0.,24.0,0.,24.0,0.,24.0
1979-07-29 21:49:42.980 ,1,1,1.,24.0,0.,24.0,0.,24.0,0.,24.0
1979-07-29 21:50:06.980 ,1,0,0.,24.0,0.,24.0,0.,24.0,0.,24.0
1979-07-29 21:50:32.180 ,2,1,0.,24.0,0.,24.0,0.,24.0,0.,24.0
1979-07-29 21:50:54.980 ,2,0,0.,24.0,0.,24.0,0.,24.0,0.,24.0
1979-07-29 21:51:18.980 ,3,1,0.,24.0,0.,24.0,0.,24.0,0.,24.0
1979-07-29 21:51:42.980 ,3,0,0.,24.0,0.,24.0,0.,24.0,0.,24.0
1979-07-29 21:52:06.980 ,4,1,0.,24.0,0.,24.0,0.,24.0,0.,24.0
1979-07-29 21:52:30.980 ,4,0,0.,24.0,0.,24.0,0.,24.0,0.,24.0
1979-07-29 21:52:54.980 ,5,1,0.,24.0,0.,24.0,0.,24.0,0.,24.0
1979-07-29 21:53:18.980 ,5,0,1.,24.0,0.,24.0,0.,24.0,0.,24.0
1979-07-29 21:53:42.980 ,6,1,0.,24.0,0.,24.0,0.,24.0,0.,24.0
1979-07-29 21:54:06.980 ,6,0,0.,24.0,0.,24.0,0.,24.0,0.,24.0
1979-07-29 21:54:30.980 ,7,0,0.,24.0,0.,24.0,0.,24.0,0.,24.0
1979-07-29 21:54:54.980 ,7,0,0.,24.0,0.,24.0,0.,24.0,0.,24.0
1979-07-29 21:55:18.980 ,5,1,0.,24.0,0.,24.0,0.,24.0,0.,24.0
1979-07-29 21:55:42.980 ,1,1,0.,24.0,0.,24.0,0.,24.0,0.,24.0
1979-07-29 21:56:06.980 ,2,1,0.,24.0,0.,24.0,0.,24.0,0.,24.0
1979-07-29 21:56:30.980 ,6,1,0.,24.0,0.,24.0,0.,24.0,0.,24.0
1979-07-29 21:56:54.980 ,5,1,0.,24.0,0.,24.0,0.,24.0,0.,24.0
1979-07-29 21:57:18.980 ,1,1,0.,24.0,0.,24.0,0.,24.0,0.,24.0
1979-07-29 21:57:42.980 ,2,1,0.,24.0,0.,24.0,0.,24.0,0.,24.0
1979-07-29 21:58:06.980 ,6,1,0.,24.0,0.,24.0,0.,24.0,0.,24.0
1979-07-29 21:58:30.980 ,5,1,0.,24.0,0.,24.0,0.,24.0,0.,24.0
1979-07-29 21:58:54.980 ,1,1,0.,24.0,0.,24.0,0.,24.0,0.,24.0
1979-07-29 21:59:18.980 ,2,1,0.,24.0,0.,24.0,0.,24.0,0.,24.0
1979-07-29 21:59:42.980 ,6,1,0.,24.0,0.,24.0,0.,24.0,0.,24.0
1979-07-29 22:00:06.980 ,5,1,0.,24.0,0.,24.0,0.,24.0,0.,24.0
1979-07-29 22:00:30.980 ,1,1,0.,24.0,0.,24.0,0.,24.0,0.,24.0
1979-07-29 22:00:54.980 ,2,1,0.,24.0,0.,24.0,0.,24.0,0.,24.0
1979-07-29 22:01:18.980 ,6,1,0.,24.0,0.,24.0,0.,24.0,0.,24.0
1979-07-29 22:01:42.980 ,5,1,0.,24.0,0.,24.0,0.,24.0,0.,24.0
1979-07-29 22:02:06.980 ,1,1,0.,24.0,0.,24.0,0.,24.0,0.,24.0
1979-07-29 22:02:30.980 ,2,1,0.,24.0,0.,24.0,0.,24.0,0.,24.0
1979-07-29 22:02:54.980 ,6,1,0.,24.0,0.,24.0,0.,24.0,0.,24.0
1979-07-29 22:03:18.980 ,5,1,0.,24.0,0.,24.0,0.,24.0,0.,24.0
1979-07-29 22:03:42.980 ,1,1,0.,24.0,0.,24.0,0.,24.0,0.,24.0
1979-07-29 22:04:06.980 ,2,1,0.,24.0,0.,24.0,0.,24.0,0.,24.0
1979-07-29 22:04:30.980 ,6,1,0.,24.0,0.,24.0,0.,24.0,0.,24.0
1979-07-29 22:04:54.980 ,5,1,0.,24.0,0.,24.0,0.,24.0,0.,24.0
1979-07-29 22:05:18.980 ,1,1,0.,24.0,0.,24.0,0.,24.0,0.,24.0
1979-07-29 22:05:42.980 ,0,0,0.,24.0,0.,24.0,0.,24.0,0.,24.0
1979-07-29 22:06:06.980 ,0,0,0.,24.0,0.,24.0,0.,24.0,0.,24.0
1979-07-29 22:06:30.980 ,5,1,0.,24.0,0.,24.0,0.,24.0,0.,24.0
1979-07-29 22:06:54.980 ,5,0,0.,24.0,0.,24.0,0.,24.0,0.,24.0
1979-07-29 22:07:18.980 ,4,1,0.,24.0,0.,24.0,0.,24.0,0.,24.0
1979-07-29 22:07:42.980 ,4,0,0.,24.0,0.,24.0,0.,24.0,0.,24.0
1979-07-29 22:08:06.980 ,3,1,0.,24.0,0.,24.0,0.,24.0,0.,24.0
1979-07-29 22:08:30.980 ,3,0,0.,24.0,0.,24.0,0.,24.0,0.,24.0
1979-07-29 22:08:54.980 ,2,1,0.,24.0,0.,24.0,0.,24.0,0.,24.0
1979-07-29 22:09:18.980 ,2,0,0.,24.0,0.,24.0,0.,24.0,0.,24.0
1979-07-29 22:09:42.980 ,1,1,0.,24.0,0.,24.0,0.,24.0,0.,24.0
1979-07-29 22:10:06.980 ,1,0,0.,24.0,0.,24.0,0.,24.0,0.,24.0
1979-07-29 22:10:30.980 ,0,1,0.,24.0,0.,24.0,0.,24.0,0.,24.0
1979-07-29 22:10:54.980 ,0,0,0.,24.0,0.,24.0,0.,24.0,0.,24.0
1979-07-29 22:11:18.980 ,0,1,0.,24.0,0.,24.0,0.,24.0,0.,24.0
1979-07-29 22:11:42.980 ,0,0,0.,24.0,0.,24.0,0.,24.0,0.,24.0
1979-07-29 22:12:06.980 ,1,1,0.,24.0,0.,24.0,0.,24.0,0.,24.0
1979-07-29 22:12:30.980 ,1,0,0.,24.0,0.,24.0,0.,24.0,0.,24.0
1979-07-29 22:12:54.980 ,2,1,0.,24.0,0.,24.0,0.,24.0,0.,24.0
1979-07-29 22:13:18.980 ,2,0,0.,24.0,0.,24.0,0.,24.0,0.,24.0
1979-07-29 22:13:42.980 ,3,1,0.,24.0,0.,24.0,0.,24.0,0.,24.0
1979-07-29 22:14:06.980 ,3,0,0.,24.0,0.,24.0,0.,24.0,0.,24.0
1979-07-29 22:14:30.980 ,4,1,0.,24.0,0.,24.0,0.,24.0,0.,24.0
1979-07-29 22:14:54.980 ,4,0,1.,24.0,0.,24.0,0.,24.0,0.,24.0
1979-07-29 22:15:18.980 ,5,1,0.,24.0,0.,24.0,0.,24.0,0.,24.0
1979-07-29 22:15:42.980 ,5,0,0.,24.0,0.,24.0,0.,24.0,0.,24.0
1979-07-29 22:16:06.980 ,6,1,0.,24.0,0.,24.0,0.,24.0,0.,24.0
1979-07-29 22:16:30.980 ,6,0,0.,24.0,0.,24.0,0.,24.0,0.,24.0
1979-07-29 22:16:54.980 ,7,1,0.,24.0,0.,24.0,0.,24.0,0.,24.0
1979-07-29 22:17:18.980 ,7,0,0.,24.0,0.,24.0,0.,24.0,0.,24.0
1979-07-29 22:17:42.980 ,7,1,0.,24.0,0.,24.0,0.,24.0,0.,24.0
1979-07-29 22:18:06.980 ,7,0,0.,24.0,0.,24.0,0.,24.0,0.,24.0
1979-07-29 22:18:30.980 ,6,1,0.,24.0,0.,24.0,0.,24.0,0.,24.0
1979-07-29 22:18:54.980 ,6,0,0.,24.0,0.,24.0,0.,24.0,0.,24.0
1979-07-29 22:19:18.980 ,5,1,0.,24.0,0.,24.0,0.,24.0,0.,24.0
1979-07-29 22:19:42.980 ,5,0,0.,24.0,0.,24.0,0.,24.0,0.,24.0
1979-07-29 22:20:06.980 ,4,1,0.,24.0,0.,24.0,0.,24.0,0.,24.0
1979-07-29 22:20:30.980 ,4,0,0.,24.0,0.,24.0,0.,24.0,0.,24.0
1979-07-29 22:20:54.980 ,3,1,0.,24.0,0.,24.0,0.,24.0,0.,24.0
1979-07-29 22:21:18.980 ,3,0,0.,24.0,0.,24.0,0.,24.0,0.,24.0
1979-07-29 22:21:42.980 ,2,1,0.,24.0,0.,24.0,0.,24.0,0.,24.0
1979-07-29 22:22:06.980 ,2,0,0.,24.0,0.,24.0,0.,24.0,0.,24.0
1979-07-29 22:22:30.980 ,1,1,0.,24.0,0.,24.0,0.,24.0,0.,24.0
1979-07-29 22:22:54.980 ,1,0,0.,24.0,0.,24.0,0.,24.0,0.,24.0
1979-07-29 22:23:18.980 ,0,1,0.,24.0,0.,24.0,0.,24.0,0.,24.0
1979-07-29 22:23:42.980 ,0,0,0.,24.0,0.,24.0,0.,24.0,0.,24.0
1979-07-29 22:24:06.980 ,0,1,0.,24.0,0.,24.0,0.,24.0,0.,24.0
1979-07-29 22:24:30.980 ,0,0,0.,24.0,0.,24.0,0.,24.0,0.,24.0
1979-07-29 22:24:54.980 ,1,1,0.,24.0,0.,24.0,0.,24.0,0.,24.0
1979-07-29 22:25:18.980 ,1,0,0.,24.0,0.,24.0,0.,24.0,0.,24.0
1979-07-29 22:25:42.980 ,2,1,0.,24.0,0.,24.0,0.,24.0,0.,24.0
1979-07-29 22:26:06.980 ,2,0,0.,24.0,0.,24.0,0.,24.0,0.,24.0
1979-07-29 22:26:30.980 ,3,1,0.,24.0,0.,24.0,0.,24.0,0.,24.0
1979-07-29 22:26:54.980 ,3,0,0.,24.0,0.,24.0,0.,24.0,0.,24.0
1979-07-29 22:27:18.980 ,4,1,0.,24.0,0.,24.0,0.,24.0,0.,24.0
1979-07-29 22:27:42.980 ,4,0,0.,24.0,0.,24.0,0.,24.0,0.,24.0
1979-07-29 22:28:06.980 ,5,1,0.,24.0,0.,24.0,0.,24.0,0.,24.0
1979-07-29 22:28:30.980 ,5,0,0.,24.0,0.,24.0,0.,24.0,0.,24.0
1979-07-29 22:28:54.980 ,6,1,0.,24.0,0.,24.0,0.,24.0,0.,24.0
1979-07-29 22:29:18.980 ,6,0,0.,24.0,0.,24.0,0.,24.0,0.,24.0
1979-07-29 22:29:42.980 ,7,1,0.,24.0,0.,24.0,0.,24.0,0.,24.0
1979-07-29 22:30:06.980 ,7,0,1.,24.0,0.,24.0,0.,24.0,0.,24.0
1979-07-29 22:30:30.980 ,7,1,0.,24.0,0.,24.0,0.,24.0,0.,24.0
1979-07-29 22:30:54.980 ,7,0,0.,24.0,0.,24.0,0.,24.0,0.,24.0
1979-07-29 22:31:18.980 ,6,1,0.,24.0,0.,24.0,0.,24.0,0.,24.0
1979-07-29 22:31:42.980 ,6,0,0.,24.0,0.,24.0,0.,24.0,0.,24.0
1979-07-29 22:32:06.980 ,5,1,0.,24.0,0.,24.0,0.,24.0,0.,24.0
1979-07-29 22:32:30.980 ,5,0,0.,24.0,0.,24.0,0.,24.0,0.,24.0
1979-07-29 22:32:54.980 ,4,1,0.,24.0,0.,24.0,0.,24.0,0.,24.0
1979-07-29 22:33:18.980 ,4,0,0.,24.0,0.,24.0,0.,24.0,0.,24.0
1979-07-29 22:33:42.980 ,3,1,0.,24.0,0.,24.0,0.,24.0,0.,24.0
1979-07-29 22:34:06.980 ,3,0,0.,24.0,0.,24.0,0.,24.0,0.,24.0
1979-07-29 22:34:30.980 ,2,1,1.,24.0,0.,24.0,0.,24.0,0.,24.0
1979-07-29 22:34:54.980 ,2,0,0.,24.0,0.,24.0,0.,24.0,0.,24.0
1979-07-29 22:35:18.980 ,1,1,0.,24.0,0.,24.0,0.,24.0,0.,24.0
1979-07-29 22:35:42.980 ,1,0,0.,24.0,0.,24.0,0.,24.0,0.,24.0
1979-07-29 22:36:06.980 ,0,1,0.,24.0,0.,24.0,0.,24.0,0.,24.0
1979-07-29 22:36:30.980 ,0,0,0.,24.0,0.,24.0,0.,24.0,0.,24.0
1979-07-29 22:36:54.980 ,0,1,0.,24.0,0.,24.0,0.,24.0,0.,24.0
1979-07-29 22:37:18.980 ,0,0,0.,24.0,0.,24.0,0.,24.0,0.,24.0
1979-07-29 22:37:42.980 ,1,1,0.,24.0,0.,24.0,0.,24.0,0.,24.0
1979-07-29 22:38:06.980 ,1,0,0.,24.0,0.,24.0,0.,24.0,0.,24.0
1979-07-29 22:38:30.980 ,0,0,0.,24.0,0.,24.0,0.,24.0,0.,24.0
1979-07-29 22:38:54.980 ,0,0,0.,24.0,0.,24.0,0.,24.0,0.,24.0
1979-07-29 22:39:18.980 ,3,1,0.,24.0,0.,24.0,0.,24.0,0.,24.0
1979-07-29 22:39:42.980 ,3,0,,0,,0,,0,,0
1979-07-29 22:40:06.980 ,4,1,0.,24.0,0.,24.0,0.,24.0,0.,24.0
1979-07-29 22:40:30.980 ,4,0,0.,24.0,0.,24.0,0.,24.0,0.,24.0
1979-07-29 22:40:54.980 ,5,1,0.,24.0,0.,24.0,0.,24.0,0.,24.0
1979-07-29 22:41:18.980 ,5,0,0.,24.0,0.,24.0,0.,24.0,0.,24.0
1979-07-29 22:41:42.980 ,6,1,0.,24.0,0.,24.0,0.,24.0,0.,24.0
1979-07-29 22:42:06.980 ,0,0,0.,24.0,0.,24.0,0.,24.0,0.,24.0
1979-07-29 22:42:36.380 ,7,0,0.,24.0,0.,24.0,0.,24.0,0.,24.0
1979-07-29 22:42:54.980 ,7,0,0.,24.0,0.,24.0,0.,24.0,0.,24.0
1979-07-29 22:43:18.980 ,0,0,0.,24.0,0.,24.0,0.,24.0,0.,24.0
1979-07-29 22:43:42.980 ,0,0,0.,24.0,0.,24.0,0.,24.0,0.,24.0
1979-07-29 22:44:06.980 ,0,0,0.,24.0,0.,24.0,0.,24.0,0.,24.0
1979-07-29 22:44:30.980 ,7,1,,0,,0,,0,,0
1979-07-29 22:44:54.980 ,5,1,0.,24.0,0.,24.0,0.,24.0,0.,24.0
1979-07-29 22:45:18.980 ,0,0,0.,24.0,0.,24.0,0.,24.0,0.,24.0
1979-07-29 22:45:42.980 ,0,0,0.,24.0,0.,24.0,0.,24.0,0.,24.0
1979-07-29 22:46:06.980 ,0,0,0.,24.0,0.,24.0,0.,24.0,0.,24.0
1979-07-29 22:46:31.580 ,0,0,0.,24.0,0.,24.0,0.,24.0,0.,24.0
1979-07-29 22:46:54.980 ,1,1,0.,24.0,0.,24.0,0.,24.0,0.,24.0
1979-07-29 22:47:18.980 ,2,1,0.,24.0,0.,24.0,0.,24.0,0.,24.0
1979-07-29 22:47:42.980 ,0,0,0.,24.0,0.,24.0,0.,24.0,0.,24.0
1979-07-29 22:48:06.980 ,0,0,0.,24.0,0.,24.0,0.,24.0,0.,24.0
1979-07-29 22:48:30.980 ,1,1,0.,24.0,0.,24.0,0.,24.0,0.,24.0
1979-07-29 22:48:56.180 ,4,1,,0,,0,,0,,0
1979-07-29 22:49:18.980 ,6,1,0.,24.0,0.,24.0,0.,24.0,0.,24.0
1979-07-29 22:49:42.980 ,5,1,0.,24.0,0.,24.0,0.,24.0,0.,24.0
1979-07-29 22:50:06.980 ,1,1,0.,24.0,0.,24.0,0.,24.0,0.,24.0
1979-07-29 22:50:30.980 ,0,0,0.,24.0,0.,24.0,0.,24.0,0.,24.0
1979-07-29 22:50:54.980 ,6,1,0.,24.0,0.,24.0,0.,24.0,0.,24.0
1979-07-29 22:51:18.980 ,5,1,0.,24.0,0.,24.0,0.,24.0,0.,24.0
1979-07-29 22:51:42.980 ,1,1,0.,24.0,0.,24.0,0.,24.0,0.,24.0
1979-07-29 22:52:06.980 ,0,0,0.,24.0,0.,24.0,0.,24.0,0.,24.0
1979-07-29 22:52:30.980 ,0,0,0.,24.0,0.,24.0,0.,24.0,0.,24.0
1979-07-29 22:52:54.980 ,5,1,0.,24.0,0.,24.0,0.,24.0,0.,24.0
1979-07-29 22:53:18.980 ,1,1,0.,24.0,0.,24.0,0.,24.0,0.,24.0
1979-07-29 22:53:42.980 ,0,0,0.,24.0,0.,24.0,0.,24.0,0.,24.0
1979-07-29 22:54:06.980 ,0,0,0.,24.0,0.,24.0,0.,24.0,0.,24.0
1979-07-29 22:54:30.980 ,5,1,0.,24.0,0.,24.0,0.,24.0,0.,24.0
1979-07-29 22:54:54.980 ,5,0,0.,24.0,0.,24.0,0.,24.0,0.,24.0
1979-07-29 22:55:20.180 ,4,0,,0,,0,,0,,0
1979-07-29 22:55:42.980 ,0,0,0.,24.0,0.,24.0,0.,24.0,0.,24.0
1979-07-29 22:56:06.980 ,0,0,0.,24.0,0.,24.0,0.,24.0,0.,24.0
1979-07-29 22:56:30.980 ,0,0,0.,24.0,0.,24.0,0.,24.0,0.,24.0
1979-07-29 22:56:54.980 ,2,1,0.,24.0,0.,24.0,0.,24.0,0.,24.0
1979-07-29 22:57:18.980 ,2,0,0.,24.0,0.,24.0,0.,24.0,0.,24.0
1979-07-29 22:57:42.980 ,1,1,0.,24.0,0.,24.0,0.,24.0,0.,24.0
1979-07-29 22:58:06.980 ,0,0,0.,24.0,0.,24.0,0.,24.0,0.,24.0
1979-07-29 22:58:30.980 ,0,0,0.,24.0,0.,24.0,0.,24.0,0.,24.0
1979-07-29 22:58:54.980 ,0,0,0.,24.0,0.,24.0,0.,24.0,0.,24.0
1979-07-29 22:59:18.980 ,0,1,,0,,0,,0,,0
1979-07-29 22:59:42.980 ,0,0,0.,24.0,0.,24.0,0.,24.0,0.,24.0
1979-07-29 23:00:06.980 ,1,1,0.,24.0,0.,24.0,0.,24.0,0.,24.0
1979-07-29 23:00:30.980 ,1,0,0.,24.0,0.,24.0,0.,24.0,0.,24.0
1979-07-29 23:01:05.780 ,2,0,,0,,0,,0,,0
1979-07-29 23:01:18.980 ,2,0,0.,24.0,0.,24.0,0.,24.0,0.,24.0
1979-07-29 23:01:42.980 ,0,0,0.,24.0,0.,24.0,0.,24.0,0.,24.0
1979-07-29 23:02:06.980 ,0,0,0.,24.0,0.,24.0,0.,24.0,0.,24.0
1979-07-29 23:02:30.980 ,4,1,0.,24.0,0.,24.0,0.,24.0,0.,24.0
1979-07-29 23:02:54.980 ,4,0,,0,,0,,0,,0
1979-07-29 23:03:18.980 ,5,1,0.,24.0,0.,24.0,0.,24.0,0.,24.0
1979-07-29 23:03:42.980 ,0,0,0.,24.0,0.,24.0,0.,24.0,0.,24.0
1979-07-29 23:04:06.980 ,0,0,0.,24.0,0.,24.0,0.,24.0,0.,24.0
1979-07-29 23:04:30.980 ,0,0,0.,24.0,0.,24.0,0.,24.0,0.,24.0
1979-07-29 23:04:54.980 ,7,1,0.,24.0,0.,24.0,0.,24.0,0.,24.0
1979-07-29 23:05:18.980 ,7,0,0.,24.0,0.,24.0,0.,24.0,0.,24.0
1979-07-29 23:05:42.980 ,7,1,0.,24.0,0.,24.0,0.,24.0,0.,24.0
1979-07-29 23:06:06.980 ,0,0,0.,24.0,0.,24.0,0.,24.0,0.,24.0
1979-07-29 23:06:31.580 ,6,1,0.,24.0,0.,24.0,0.,24.0,0.,24.0
1979-07-29 23:06:54.980 ,0,0,0.,24.0,0.,24.0,0.,24.0,0.,24.0
1979-07-29 23:07:18.980 ,5,1,0.,24.0,0.,24.0,0.,24.0,0.,24.0
1979-07-29 23:07:42.980 ,5,0,0.,24.0,0.,24.0,0.,24.0,0.,24.0
1979-07-29 23:08:06.980 ,4,1,0.,24.0,0.,24.0,0.,24.0,0.,24.0
1979-07-29 23:08:30.980 ,0,0,0.,24.0,0.,24.0,0.,24.0,0.,24.0
1979-07-29 23:08:55.580 ,3,1,0.,24.0,0.,24.0,0.,24.0,0.,24.0
1979-07-29 23:09:18.980 ,3,0,0.,24.0,0.,24.0,0.,24.0,0.,24.0
1979-07-29 23:09:42.980 ,2,1,0.,24.0,0.,24.0,0.,24.0,0.,24.0
1979-07-29 23:10:06.980 ,2,0,0.,24.0,0.,24.0,0.,24.0,0.,24.0
1979-07-29 23:10:30.980 ,0,0,0.,24.0,0.,24.0,0.,24.0,0.,24.0
1979-07-29 23:10:54.980 ,0,0,0.,24.0,0.,24.0,0.,24.0,0.,24.0
1979-07-29 23:11:18.980 ,0,1,0.,24.0,0.,24.0,0.,24.0,0.,24.0
1979-07-29 23:11:42.980 ,0,0,0.,24.0,0.,24.0,0.,24.0,0.,24.0
1979-07-29 23:12:06.980 ,0,1,0.,24.0,0.,24.0,0.,24.0,0.,24.0
1979-07-29 23:12:30.980 ,0,1,0.,24.0,0.,24.0,0.,24.0,1.,24.0
1979-07-29 23:12:54.980 ,1,1,0.,24.0,0.,24.0,0.,24.0,0.,24.0
1979-07-29 23:13:18.980 ,0,0,0.,24.0,0.,24.0,0.,24.0,0.,24.0
1979-07-29 23:13:42.980 ,2,1,0.,24.0,0.,24.0,0.,24.0,0.,24.0
1979-07-29 23:14:06.980 ,2,0,0.,24.0,0.,24.0,0.,24.0,0.,24.0
1979-07-29 23:14:30.980 ,3,1,0.,24.0,0.,24.0,0.,24.0,0.,24.0
1979-07-29 23:14:54.980 ,3,0,,0,,0,,0,,0
1979-07-29 23:15:18.980 ,4,1,0.,24.0,0.,24.0,0.,24.0,0.,24.0
1979-07-29 23:15:42.980 ,4,0,0.,24.0,0.,24.0,0.,24.0,0.,24.0
1979-07-29 23:16:06.980 ,5,1,0.,24.0,0.,24.0,0.,24.0,0.,24.0
1979-07-29 23:16:30.980 ,5,0,0.,24.0,0.,24.0,0.,24.0,0.,24.0
1979-07-29 23:16:54.980 ,6,0,,0,,0,,0,,0
1979-07-29 23:17:18.980 ,6,0,0.,24.0,0.,24.0,0.,24.0,0.,24.0
1979-07-29 23:17:42.980 ,7,0,,0,,0,,0,,0
1979-07-29 23:18:06.980 ,0,0,0.,24.0,0.,24.0,0.,24.0,0.,24.0
1979-07-29 23:18:30.980 ,0,0,0.,24.0,0.,24.0,0.,24.0,0.,24.0
1979-07-29 23:18:54.980 ,0,0,0.,24.0,0.,24.0,0.,24.0,0.,24.0
1979-07-29 23:19:18.980 ,6,1,0.,24.0,0.,24.0,0.,24.0,0.,24.0
1979-07-29 23:19:42.980 ,6,0,0.,24.0,0.,24.0,0.,24.0,0.,24.0
1979-07-29 23:20:06.980 ,5,0,,0,,0,,0,,0
1979-07-29 23:20:30.980 ,5,0,0.,24.0,0.,24.0,0.,24.0,0.,24.0
1979-07-29 23:20:54.980 ,0,0,1.,24.0,0.,24.0,0.,24.0,0.,24.0
1979-07-29 23:21:18.980 ,4,1,0.,24.0,0.,24.0,0.,24.0,0.,24.0
1979-07-29 23:21:42.980 ,3,1,0.,24.0,0.,24.0,0.,24.0,0.,24.0
1979-07-29 23:22:06.980 ,3,0,,0,,0,,0,,0
1979-07-29 23:22:30.980 ,0,0,0.,24.0,0.,24.0,0.,24.0,0.,24.0
1979-07-29 23:22:54.980 ,0,0,0.,24.0,0.,24.0,0.,24.0,0.,24.0
1979-07-29 23:23:18.980 ,0,0,0.,24.0,0.,24.0,0.,24.0,0.,24.0
1979-07-29 23:23:42.980 ,0,0,0.,24.0,0.,24.0,0.,24.0,0.,24.0
1979-07-29 23:24:06.980 ,0,1,0.,24.0,0.,24.0,0.,24.0,0.,24.0
1979-07-29 23:24:30.980 ,0,0,0.,24.0,0.,24.0,0.,24.0,0.,24.0
1979-07-29 23:24:54.980 ,0,1,0.,24.0,0.,24.0,0.,24.0,0.,24.0
1979-07-29 23:25:18.980 ,0,0,0.,24.0,0.,24.0,0.,24.0,0.,24.0
1979-07-29 23:25:42.980 ,1,1,0.,24.0,0.,24.0,0.,24.0,0.,24.0
1979-07-29 23:26:06.980 ,1,0,0.,24.0,0.,24.0,0.,24.0,0.,24.0
1979-07-29 23:26:30.980 ,2,1,0.,24.0,0.,24.0,0.,24.0,0.,24.0
1979-07-29 23:26:54.980 ,2,0,0.,24.0,0.,24.0,0.,24.0,0.,24.0
1979-07-29 23:27:18.980 ,3,1,0.,24.0,0.,24.0,0.,24.0,0.,24.0
1979-07-29 23:27:42.980 ,3,0,0.,24.0,0.,24.0,0.,24.0,0.,24.0
1979-07-29 23:28:06.980 ,4,1,0.,24.0,0.,24.0,0.,24.0,0.,24.0
1979-07-29 23:28:30.980 ,4,0,0.,24.0,0.,24.0,0.,24.0,0.,24.0
1979-07-29 23:28:54.980 ,5,1,0.,24.0,0.,24.0,0.,24.0,0.,24.0
1979-07-29 23:29:18.980 ,5,0,0.,24.0,0.,24.0,0.,24.0,0.,24.0
1979-07-29 23:29:42.980 ,6,1,0.,24.0,0.,24.0,0.,24.0,0.,24.0
1979-07-29 23:30:06.980 ,0,0,0.,24.0,0.,24.0,0.,24.0,0.,24.0
1979-07-29 23:30:31.580 ,7,0,0.,24.0,0.,24.0,0.,24.0,0.,24.0
1979-07-29 23:30:54.980 ,7,0,0.,24.0,0.,24.0,0.,24.0,0.,24.0
1979-07-29 23:31:18.980 ,0,0,0.,24.0,0.,24.0,0.,24.0,0.,24.0
1979-07-29 23:31:42.980 ,0,0,0.,24.0,0.,24.0,0.,24.0,0.,24.0
1979-07-29 23:32:06.980 ,2,1,0.,24.0,0.,24.0,0.,24.0,0.,24.0
1979-07-29 23:32:30.980 ,6,1,0.,24.0,0.,24.0,0.,24.0,0.,24.0
1979-07-29 23:32:54.980 ,3,1,,0,,0,,0,,0
1979-07-29 23:33:18.980 ,0,0,,0,,0,,0,,0
1979-07-29 23:33:43.580 ,2,1,0.,24.0,0.,24.0,0.,24.0,0.,24.0
1979-07-29 23:34:06.980 ,6,1,0.,24.0,0.,24.0,0.,24.0,0.,24.0
1979-07-29 23:34:30.980 ,0,0,0.,24.0,0.,24.0,0.,24.0,0.,24.0
1979-07-29 23:34:54.980 ,0,0,0.,24.0,0.,24.0,0.,24.0,0.,24.0
1979-07-29 23:35:18.980 ,2,1,0.,24.0,0.,24.0,0.,24.0,0.,24.0
1979-07-29 23:35:42.980 ,0,0,0.,24.0,0.,24.0,0.,24.0,0.,24.0
1979-07-29 23:36:55.580 ,0,0,,0,,0,,0,,0
1979-07-29 23:37:18.980 ,6,1,0.,24.0,0.,24.0,0.,24.0,0.,24.0